Zurück zum Katalog

STARLINK-1578

AktivKommunikationVLEO
NORAD 46082·PAYLOAD·🇺🇸 United States

Gestartet Aug 7, 2020 von Cape Canaveral Space Force Station

Loading…

Nächste Überflüge (nächste 24 Stunden)

TLE

AktuellSource: CelesTrak SupGP

Epoche: Sep 15, 2026, 01:52 UTC

1 46082C 20055BH  26258.07826389  .00032958  00000+0  10595-2 0  2584
2 46082  53.1591 300.2888 0001304  84.0236  62.3776 15.31695367    14

Verfolge STARLINK-1578 in Echtzeit mit AllMySat

Download on the App Store